NORBI

Last updated on Thu Oct 29 2020 00:02:02 GMT+0000 (Coordinated Universal Time)

1 46494U 20068J 20302.63227613 .00001581 00000-0 12058-3 0 9994 2 46494 97.6700 235.8421 0018851 141.4378 218.8199 15.03335170 4509
UTC large
Height (km)
Speed (km/s)
/
Latitude / Longitude
Inclination (degrees)
Orbital Period (minutes)
Azimuth
Elevation
Range (km)
Doppler Factor

Next 0 passes for location: London (51.5072 / 0.1276)

Sorry there are no passes over London.